,,Stat6,,Stat2,,Stat8,,Stat9,,Stat10,,Wind1,,Wind1,
time,status,PA1M_AVG,status,PR1M_SUM,status,RH1M_AVG,status,SR1M_AVG,status,TA1M_AVG,status,W1dAve1m,status,W1sAve1m,
2008-07-09, 00:00:00,VALID,917.556,VALID,0,VALID,100,VALID,-0.0849042,VALID,18.9738,VALID,157,VALID,0.0534446,
2008-07-09, 00:01:00,VALID,917.543,VALID,0,VALID,100,VALID,-0.0679233,VALID,18.9448,VALID,132,VALID,0.729539,
2008-07-09, 00:02:00,VALID,917.525,VALID,0,VALID,100,VALID,-0.118866,VALID,18.8992,VALID,130,VALID,0.934524,
2008-07-09, 00:03:00,VALID,917.517,VALID,0,VALID,100,VALID,-0.0849042,VALID,18.8732,VALID,114,VALID,0.993304,
2008-07-09, 00:04:00,VALID,917.497,VALID,0,VALID,100,VALID,-0.0849042,VALID,18.8802,VALID,114,VALID,1.04688,
2008-07-09, 00:05:00,VALID,917.494,VALID,0,VALID,100,VALID,-0.0849042,VALID,18.8728,VALID,113,VALID,0.739644,
2008-07-09, 00:06:00,VALID,917.477,VALID,0,VALID,100,VALID,-0.101885,VALID,18.8505,VALID,109,VALID,0.728924,
2008-07-09, 00:07:00,VALID,917.459,VALID,0,VALID,100,VALID,-0.101885,VALID,18.8408,VALID,112,VALID,0.770389,
2008-07-09, 00:08:00,VALID,917.461,VALID,0,VALID,100,VALID,-0.0849042,VALID,18.8343,VALID,124,VALID,0.750744,
2008-07-09, 00:09:00,VALID,917.455,VALID,0,VALID,100,VALID,-0.0849042,VALID,18.8308,VALID,125,VALID,0.806597,
2008-07-09, 00:10:00,VALID,917.447,VALID,0,VALID,100,VALID,-0.101885,VALID,18.8573,VALID,125,VALID,1.0122,
2008-07-09, 00:11:00,VALID,917.467,VALID,0,VALID,100,VALID,-0.0169808,VALID,18.8426,VALID,128,VALID,0.98165,
2008-07-09, 00:12:00,VALID,917.466,VALID,0,VALID,100,VALID,-0.0339617,VALID,18.8326,VALID,126,VALID,1.0645,
2008-07-09, 00:13:00,VALID,917.482,VALID,0,VALID,100,VALID,-0.0169808,VALID,18.8069,VALID,129,VALID,0.991016,
2008-07-09, 00:14:00,VALID,917.495,VALID,0,VALID,100,VALID,0,VALID,18.8039,VALID,134,VALID,1.03125,
2008-07-09, 00:15:00,VALID,917.509,VALID,0,VALID,100,VALID,0,VALID,18.7879,VALID,142,VALID,0.547763,
2008-07-09, 00:16:00,VALID,917.517,VALID,0,VALID,100,VALID,0,VALID,18.7743,VALID,151,VALID,0.907703,
2008-07-09, 00:17:00,VALID,917.522,VALID,0,VALID,100,VALID,-0.0169808,VALID,18.775,VALID,149,VALID,0.65483,
2008-07-09, 00:18:00,VALID,917.527,VALID,0,VALID,100,VALID,0,VALID,18.7682,VALID,160,VALID,0.994665,
2008-07-09, 00:19:00,VALID,917.539,VALID,0,VALID,100,VALID,-0.0169808,VALID,18.7717,VALID,155,VALID,0.985119,
2008-07-09, 00:20:00,VALID,917.536,VALID,0,VALID,100,VALID,-0.0169808,VALID,18.7553,VALID,151,VALID,0.988281,
2008-07-09, 00:21:00,VALID,917.564,VALID,0,VALID,100,VALID,-0.0339617,VALID,18.7363,VALID,148,VALID,1.08389,
2008-07-09, 00:22:00,VALID,917.572,VALID,0,VALID,100,VALID,-0.0339617,VALID,18.7263,VALID,149,VALID,1.03249,
2008-07-09, 00:23:00,VALID,917.587,VALID,0,VALID,100,VALID,0,VALID,18.6936,VALID,133,VALID,0.650799,
2008-07-09, 00:24:00,VALID,917.595,VALID,0,VALID,100,VALID,0,VALID,18.6774,VALID,128,VALID,1.4226,
2008-07-09, 00:25:00,VALID,917.595,VALID,0,VALID,100,VALID,0,VALID,18.6869,VALID,133,VALID,1.10356,
2008-07-09, 00:26:00,VALID,917.589,VALID,0,VALID,100,VALID,-0.135847,VALID,18.7113,VALID,140,VALID,1.21548,
2008-07-09, 00:27:00,VALID,917.558,VALID,0,VALID,100,VALID,-0.101885,VALID,18.7243,VALID,143,VALID,0.992543,
2008-07-09, 00:28:00,VALID,917.521,VALID,0,VALID,100,VALID,-0.118866,VALID,18.724,VALID,141,VALID,1.11464,
2008-07-09, 00:29:00,VALID,917.507,VALID,0,VALID,100,VALID,-0.101885,VALID,18.7435,VALID,140,VALID,1.00893,
2008-07-09, 00:30:00,VALID,917.497,VALID,0,VALID,100,VALID,-0.101885,VALID,18.7502,VALID,130,VALID,0.956214,
2008-07-09, 00:31:00,VALID,917.494,VALID,0,VALID,100,VALID,-0.135847,VALID,18.7532,VALID,139,VALID,1.13357,
2008-07-09, 00:32:00,VALID,917.488,VALID,0,VALID,100,VALID,-0.135847,VALID,18.7792,VALID,143,VALID,1.01153,
2008-07-09, 00:33:00,VALID,917.494,VALID,0,VALID,100,VALID,-0.118866,VALID,18.7894,VALID,137,VALID,1.24618,
2008-07-09, 00:34:00,VALID,917.508,VALID,0,VALID,100,VALID,-0.169808,VALID,18.8088,VALID,142,VALID,1.07124,
2008-07-09, 00:35:00,VALID,917.521,VALID,0,VALID,100,VALID,-0.118866,VALID,18.7991,VALID,147,VALID,0.648828,
2008-07-09, 00:36:00,VALID,917.518,VALID,0,VALID,100,VALID,-0.118866,VALID,18.7991,VALID,155,VALID,0.966619,
2008-07-09, 00:37:00,VALID,917.526,VALID,0,VALID,100,VALID,-0.0849042,VALID,18.8021,VALID,138,VALID,0.569196,
2008-07-09, 00:38:00,VALID,917.527,VALID,0,VALID,100,VALID,-0.152827,VALID,18.7956,VALID,154,VALID,0,
2008-07-09, 00:39:00,VALID,917.509,VALID,0,VALID,100,VALID,-0.118866,VALID,18.7989,VALID,138,VALID,0.00130208,
2008-07-09, 00:40:00,VALID,917.51,VALID,0,VALID,100,VALID,-0.118866,VALID,18.7859,VALID,157,VALID,0,
2008-07-09, 00:41:00,VALID,917.52,VALID,0,VALID,100,VALID,-0.101885,VALID,18.7724,VALID,140,VALID,0,
2008-07-09, 00:42:00,VALID,917.521,VALID,0,VALID,100,VALID,-0.118866,VALID,18.7629,VALID,146,VALID,0,
2008-07-09, 00:43:00,VALID,917.536,VALID,0,VALID,100,VALID,-0.101885,VALID,18.7465,VALID,136,VALID,0.129542,
2008-07-09, 00:44:00,VALID,917.538,VALID,0,VALID,100,VALID,-0.118866,VALID,18.737,VALID,134,VALID,0.00181686,
2008-07-09, 00:45:00,VALID,917.53,VALID,0,VALID,100,VALID,-0.0339617,VALID,18.7163,VALID,130,VALID,0,
2008-07-09, 00:46:00,VALID,917.51,VALID,0,VALID,100,VALID,-0.0169808,VALID,18.7069,VALID,127,VALID,0,
2008-07-09, 00:47:00,VALID,917.501,VALID,0,VALID,100,VALID,-0.0169808,VALID,18.6869,VALID,127,VALID,0,
2008-07-09, 00:48:00,VALID,917.464,VALID,0,VALID,100,VALID,0,VALID,18.6872,VALID,121,VALID,0,
2008-07-09, 00:49:00,VALID,917.438,VALID,0,VALID,100,VALID,0.0169808,VALID,18.6577,VALID,87,VALID,0.375521,
2008-07-09, 00:50:00,VALID,917.409,VALID,0,VALID,100,VALID,0.0169808,VALID,18.632,VALID,73,VALID,0.777249,
2008-07-09, 00:51:00,VALID,917.395,VALID,0,VALID,100,VALID,0,VALID,18.5991,VALID,73,VALID,0.699405,
2008-07-09, 00:52:00,VALID,917.381,VALID,0,VALID,100,VALID,0,VALID,18.5699,VALID,73,VALID,0.574673,
2008-07-09, 00:53:00,VALID,917.37,VALID,0,VALID,100,VALID,-0.0169808,VALID,18.5891,VALID,81,VALID,0.466704,
2008-07-09, 00:54:00,VALID,917.363,VALID,0,VALID,100,VALID,-0.0169808,VALID,18.619,VALID,99,VALID,0.588601,
2008-07-09, 00:55:00,VALID,917.345,VALID,0,VALID,100,VALID,-0.0339617,VALID,18.6123,VALID,107,VALID,0.166371,
2008-07-09, 00:56:00,VALID,917.338,VALID,0,VALID,100,VALID,0.0169808,VALID,18.5799,VALID,99,VALID,0.429869,
2008-07-09, 00:57:00,VALID,917.324,VALID,0,VALID,100,VALID,0.0509425,VALID,18.4564,VALID,68,VALID,0.688453,
2008-07-09, 00:58:00,VALID,917.324,VALID,0,VALID,100,VALID,0.0339617,VALID,18.4112,VALID,67,VALID,0.524368,
2008-07-09, 00:59:00,VALID,917.316,VALID,0,VALID,100,VALID,0,VALID,18.3913,VALID,67,VALID,0.156059,
2008-07-09, 01:00:01,VALID,917.316,VALID,0,VALID,100,VALID,0.0339617,VALID,18.404,VALID,67,VALID,0,
2008-07-09, 01:01:00,VALID,917.312,VALID,0,VALID,100,VALID,0.0169808,VALID,18.4073,VALID,67,VALID,0,
2008-07-09, 01:02:00,VALID,917.32,VALID,0,VALID,100,VALID,0,VALID,18.3985,VALID,67,VALID,0,
2008-07-09, 01:03:00,VALID,917.335,VALID,0,VALID,100,VALID,0.0169808,VALID,18.3918,VALID,67,VALID,0,
2008-07-09, 01:04:00,VALID,917.344,VALID,0,VALID,100,VALID,0.0169808,VALID,18.3723,VALID,67,VALID,0,
2008-07-09, 01:05:00,VALID,917.331,VALID,0,VALID,100,VALID,0.0169808,VALID,18.301,VALID,67,VALID,0,
2008-07-09, 01:06:00,VALID,917.344,VALID,0,VALID,100,VALID,0.0169808,VALID,18.1902,VALID,67,VALID,0,
2008-07-09, 01:07:00,VALID,917.347,VALID,0,VALID,100,VALID,0.0509425,VALID,18.2289,VALID,67,VALID,0,
2008-07-09, 01:08:00,VALID,917.358,VALID,0,VALID,100,VALID,0.0169808,VALID,18.2294,VALID,67,VALID,0,
2008-07-09, 01:09:00,VALID,917.342,VALID,0,VALID,100,VALID,0.0509425,VALID,18.1835,VALID,67,VALID,0,
2008-07-09, 01:10:00,VALID,917.321,VALID,0,VALID,100,VALID,0.0169808,VALID,18.2039,VALID,67,VALID,0,
2008-07-09, 01:11:00,VALID,917.301,VALID,0,VALID,100,VALID,-0.101885,VALID,18.2507,VALID,67,VALID,0,
2008-07-09, 01:12:01,VALID,917.289,VALID,0,VALID,100,VALID,-0.101885,VALID,18.2275,VALID,67,VALID,0,
2008-07-09, 01:13:01,VALID,917.27,VALID,0,VALID,100,VALID,-0.0679233,VALID,18.1399,VALID,67,VALID,0,
2008-07-09, 01:14:00,VALID,917.263,VALID,0,VALID,100,VALID,-0.0849042,VALID,18.1108,VALID,67,VALID,0,
2008-07-09, 01:15:01,VALID,917.238,VALID,0,VALID,100,VALID,-0.0679233,VALID,18.1071,VALID,67,VALID,0,
2008-07-09, 01:16:00,VALID,917.244,VALID,0,VALID,100,VALID,-0.101885,VALID,18.1045,VALID,67,VALID,0,
2008-07-09, 01:17:01,VALID,917.229,VALID,0,VALID,100,VALID,-0.0849042,VALID,18.0621,VALID,67,VALID,0,
2008-07-09, 01:18:00,VALID,917.244,VALID,0,VALID,100,VALID,-0.0679233,VALID,18.023,VALID,67,VALID,0,
2008-07-09, 01:19:01,VALID,917.238,VALID,0,VALID,100,VALID,-0.0509425,VALID,17.9903,VALID,67,VALID,0,
2008-07-09, 01:20:01,VALID,917.229,VALID,0,VALID,100,VALID,-0.101885,VALID,17.9678,VALID,67,VALID,0,
2008-07-09, 01:21:01,VALID,917.232,VALID,0,VALID,100,VALID,-0.0679233,VALID,17.9676,VALID,67,VALID,0,
2008-07-09, 01:22:00,VALID,917.226,VALID,0,VALID,100,VALID,-0.0849042,VALID,18.0033,VALID,67,VALID,0,
2008-07-09, 01:23:00,VALID,917.237,VALID,0,VALID,100,VALID,-0.0679233,VALID,18.0003,VALID,67,VALID,0,
2008-07-09, 01:24:01,VALID,917.245,VALID,0,VALID,100,VALID,-0.0509425,VALID,18.039,VALID,67,VALID,0,
2008-07-09, 01:25:00,VALID,917.229,VALID,0,VALID,100,VALID,-0.101885,VALID,18.1142,VALID,67,VALID,0,
2008-07-09, 01:26:01,VALID,917.241,VALID,0,VALID,100,VALID,-0.118866,VALID,18.111,VALID,67,VALID,0,
2008-07-09, 01:27:01,VALID,917.239,VALID,0,VALID,100,VALID,-0.0849042,VALID,18.0716,VALID,67,VALID,0,
2008-07-09, 01:28:00,VALID,917.228,VALID,0,VALID,100,VALID,-0.0849042,VALID,18.0033,VALID,67,VALID,0,
2008-07-09, 01:29:01,VALID,917.227,VALID,0,VALID,100,VALID,-0.0679233,VALID,17.9484,VALID,67,VALID,0,
2008-07-09, 01:30:00,VALID,917.214,VALID,0,VALID,100,VALID,-0.0849042,VALID,17.9095,VALID,67,VALID,0,
2008-07-09, 01:31:00,VALID,917.206,VALID,0,VALID,100,VALID,-0.0849042,VALID,17.9616,VALID,67,VALID,0,
2008-07-09, 01:32:01,VALID,917.204,VALID,0,VALID,100,VALID,-0.0509425,VALID,18.0519,VALID,67,VALID,0,
2008-07-09, 01:33:01,VALID,917.214,VALID,0,VALID,100,VALID,-0.0849042,VALID,18.1527,VALID,67,VALID,0,
2008-07-09, 01:34:00,VALID,917.221,VALID,0,VALID,100,VALID,-0.0679233,VALID,18.2071,VALID,67,VALID,0,
2008-07-09, 01:35:01,VALID,917.236,VALID,0,VALID,100,VALID,-0.0849042,VALID,18.2268,VALID,67,VALID,0,
2008-07-09, 01:36:00,VALID,917.24,VALID,0,VALID,100,VALID,-0.0509425,VALID,18.259,VALID,67,VALID,0,
2008-07-09, 01:37:00,VALID,917.241,VALID,0,VALID,100,VALID,-0.0339617,VALID,18.3014,VALID,67,VALID,0,
2008-07-09, 01:38:01,VALID,917.239,VALID,0,VALID,100,VALID,-0.0509425,VALID,18.3278,VALID,67,VALID,0,
2008-07-09, 01:39:01,VALID,917.244,VALID,0,VALID,100,VALID,-0.0849042,VALID,18.3111,VALID,128,VALID,0,
2008-07-09, 01:40:01,VALID,917.259,VALID,0,VALID,100,VALID,-0.0679233,VALID,18.2794,VALID,165,VALID,0,
2008-07-09, 01:41:00,VALID,917.263,VALID,0,VALID,100,VALID,-0.101885,VALID,18.1596,VALID,165,VALID,0,
2008-07-09, 01:42:00,VALID,917.261,VALID,0,VALID,100,VALID,-0.0849042,VALID,18.0264,VALID,162,VALID,0,
2008-07-09, 01:43:00,VALID,917.255,VALID,0,VALID,100,VALID,-0.0679233,VALID,17.9905,VALID,166,VALID,0.0897436,
2008-07-09, 01:44:01,VALID,917.247,VALID,0,VALID,100,VALID,-0.0849042,VALID,18.0132,VALID,167,VALID,0,
2008-07-09, 01:45:00,VALID,917.232,VALID,0,VALID,100,VALID,-0.0679233,VALID,18.0128,VALID,169,VALID,0.065696,
2008-07-09, 01:46:00,VALID,917.201,VALID,0,VALID,100,VALID,-0.0849042,VALID,18.0232,VALID,169,VALID,0,
2008-07-09, 01:47:00,VALID,917.178,VALID,0,VALID,100,VALID,-0.0679233,VALID,18.0163,VALID,169,VALID,0.120458,
2008-07-09, 01:48:01,VALID,917.147,VALID,0,VALID,100,VALID,-0.0509425,VALID,17.9931,VALID,169,VALID,1.02782,
2008-07-09, 01:49:01,VALID,917.121,VALID,0,VALID,100,VALID,-0.0849042,VALID,17.9708,VALID,172,VALID,0.623512,
2008-07-09, 01:50:01,VALID,917.098,VALID,0,VALID,100,VALID,-0.0679233,VALID,17.9347,VALID,178,VALID,0.341388,
2008-07-09, 01:51:01,VALID,917.077,VALID,0,VALID,100,VALID,-0.0849042,VALID,17.9185,VALID,178,VALID,0,
2008-07-09, 01:52:00,VALID,917.07,VALID,0,VALID,100,VALID,-0.0849042,VALID,17.893,VALID,178,VALID,0,
2008-07-09, 01:53:01,VALID,917.06,VALID,0,VALID,100,VALID,-0.101885,VALID,17.884,VALID,178,VALID,0,
2008-07-09, 01:54:01,VALID,917.044,VALID,0,VALID,100,VALID,-0.0679233,VALID,17.8448,VALID,175,VALID,0,
2008-07-09, 01:55:01,VALID,917.028,VALID,0,VALID,100,VALID,-0.101885,VALID,17.877,VALID,171,VALID,0,
2008-07-09, 01:56:01,VALID,917.002,VALID,0,VALID,100,VALID,0.0169808,VALID,17.9472,VALID,161,VALID,0,
2008-07-09, 01:57:01,VALID,916.982,VALID,0,VALID,100,VALID,0.0339617,VALID,17.9866,VALID,161,VALID,0,
2008-07-09, 01:58:01,VALID,916.957,VALID,0,VALID,100,VALID,0,VALID,17.966,VALID,161,VALID,0,
2008-07-09, 01:59:01,VALID,916.946,VALID,0,VALID,100,VALID,0.0169808,VALID,17.9697,VALID,161,VALID,0,
2008-07-09, 02:00:00,VALID,916.927,VALID,0,VALID,100,VALID,0.0169808,VALID,17.9957,VALID,161,VALID,0,
2008-07-09, 02:01:00,VALID,916.923,VALID,0,VALID,100,VALID,-0.0169808,VALID,18.0415,VALID,161,VALID,0,
2008-07-09, 02:02:00,VALID,916.906,VALID,0,VALID,100,VALID,0,VALID,18.0506,VALID,161,VALID,0,
2008-07-09, 02:03:00,VALID,916.903,VALID,0,VALID,100,VALID,0.0169808,VALID,18.064,VALID,160,VALID,0,
2008-07-09, 02:04:00,VALID,916.901,VALID,0,VALID,100,VALID,0.0339617,VALID,18.0705,VALID,160,VALID,0,
2008-07-09, 02:05:00,VALID,916.891,VALID,0,VALID,100,VALID,0,VALID,18.0934,VALID,160,VALID,0,
2008-07-09, 02:06:00,VALID,916.881,VALID,0,VALID,100,VALID,0,VALID,18.1282,VALID,160,VALID,0,
2008-07-09, 02:07:00,VALID,916.873,VALID,0,VALID,100,VALID,0.0169808,VALID,18.1316,VALID,159,VALID,0,
2008-07-09, 02:08:00,VALID,916.853,VALID,0,VALID,100,VALID,0,VALID,18.1258,VALID,159,VALID,0,
2008-07-09, 02:09:00,VALID,916.839,VALID,0,VALID,100,VALID,0.0169808,VALID,18.0999,VALID,159,VALID,0,
2008-07-09, 02:10:00,VALID,916.82,VALID,0,VALID,100,VALID,-0.0169808,VALID,18.0804,VALID,143,VALID,0.512463,
2008-07-09, 02:11:00,VALID,916.794,VALID,0,VALID,100,VALID,-0.101885,VALID,18.0786,VALID,123,VALID,0.947129,
2008-07-09, 02:12:00,VALID,916.777,VALID,0,VALID,100,VALID,-0.0849042,VALID,18.0881,VALID,120,VALID,0.829055,
2008-07-09, 02:13:00,VALID,916.769,VALID,0,VALID,100,VALID,-0.101885,VALID,18.0948,VALID,131,VALID,0.97619,
2008-07-09, 02:14:00,VALID,916.747,VALID,0,VALID,100,VALID,-0.101885,VALID,18.0911,VALID,140,VALID,0.850038,
2008-07-09, 02:15:00,VALID,916.737,VALID,0,VALID,100,VALID,-0.101885,VALID,18.111,VALID,141,VALID,0.545186,
2008-07-09, 02:16:00,VALID,916.704,VALID,0,VALID,100,VALID,-0.0679233,VALID,18.0948,VALID,142,VALID,0,
2008-07-09, 02:17:00,VALID,916.676,VALID,0,VALID,100,VALID,-0.0849042,VALID,18.0915,VALID,142,VALID,0,
2008-07-09, 02:18:00,VALID,916.646,VALID,0,VALID,100,VALID,-0.0679233,VALID,18.101,VALID,145,VALID,0,
2008-07-09, 02:19:00,VALID,916.603,VALID,0,VALID,100,VALID,-0.0849042,VALID,18.1172,VALID,146,VALID,0,
2008-07-09, 02:20:00,VALID,916.586,VALID,0,VALID,100,VALID,-0.101885,VALID,18.1047,VALID,147,VALID,0,
2008-07-09, 02:21:00,VALID,916.571,VALID,0,VALID,100,VALID,-0.118866,VALID,18.0948,VALID,147,VALID,0,
2008-07-09, 02:22:00,VALID,916.538,VALID,0,VALID,100,VALID,-0.101885,VALID,18.0691,VALID,147,VALID,0,
2008-07-09, 02:23:00,VALID,916.545,VALID,0,VALID,100,VALID,-0.135847,VALID,18.0392,VALID,147,VALID,0,
2008-07-09, 02:24:00,VALID,916.532,VALID,0,VALID,100,VALID,-0.118866,VALID,18.0135,VALID,147,VALID,0,
2008-07-09, 02:25:00,VALID,916.516,VALID,0,VALID,100,VALID,-0.0849042,VALID,17.9972,VALID,147,VALID,0,
2008-07-09, 02:26:00,VALID,916.502,VALID,0,VALID,100,VALID,0.0169808,VALID,17.9801,VALID,147,VALID,0,
2008-07-09, 02:27:00,VALID,916.5,VALID,0,VALID,100,VALID,-0.0339617,VALID,17.9966,VALID,147,VALID,0,
2008-07-09, 02:28:00,VALID,916.478,VALID,0,VALID,100,VALID,0,VALID,18.019,VALID,147,VALID,0,
2008-07-09, 02:29:00,VALID,916.464,VALID,0,VALID,100,VALID,0,VALID,18.0158,VALID,147,VALID,0,
2008-07-09, 02:30:00,VALID,916.456,VALID,0,VALID,100,VALID,0,VALID,18.0026,VALID,146,VALID,0,
2008-07-09, 02:31:00,VALID,916.429,VALID,0,VALID,100,VALID,0,VALID,18.016,VALID,141,VALID,0,
2008-07-09, 02:32:00,VALID,916.409,VALID,0,VALID,100,VALID,-0.0169808,VALID,17.9797,VALID,135,VALID,0,
2008-07-09, 02:33:00,VALID,916.393,VALID,0,VALID,100,VALID,0,VALID,17.9736,VALID,126,VALID,0,
2008-07-09, 02:34:00,VALID,916.379,VALID,0,VALID,100,VALID,-0.0169808,VALID,17.9736,VALID,131,VALID,0,
2008-07-09, 02:35:00,VALID,916.393,VALID,0,VALID,100,VALID,-0.0339617,VALID,18.0031,VALID,124,VALID,0,
2008-07-09, 02:36:00,VALID,916.396,VALID,0,VALID,100,VALID,0.0169808,VALID,18.0123,VALID,125,VALID,0.472155,
2008-07-09, 02:37:00,VALID,916.417,VALID,0,VALID,100,VALID,0,VALID,17.9959,VALID,126,VALID,0.703299,
2008-07-09, 02:38:00,VALID,916.43,VALID,0,VALID,100,VALID,0,VALID,17.9604,VALID,114,VALID,0.971058,
2008-07-09, 02:39:00,VALID,916.461,VALID,0,VALID,100,VALID,0.0169808,VALID,17.9213,VALID,118,VALID,0.726749,
2008-07-09, 02:40:00,VALID,916.468,VALID,0,VALID,100,VALID,0,VALID,17.8926,VALID,121,VALID,0.838663,
2008-07-09, 02:41:00,VALID,916.482,VALID,0,VALID,100,VALID,0,VALID,17.8634,VALID,129,VALID,1.09268,
2008-07-09, 02:42:00,VALID,916.482,VALID,0,VALID,100,VALID,0,VALID,17.8634,VALID,131,VALID,1.16729,
2008-07-09, 02:43:00,VALID,916.477,VALID,0,VALID,100,VALID,0,VALID,17.8731,VALID,137,VALID,1.23899,
2008-07-09, 02:44:00,VALID,916.467,VALID,0,VALID,100,VALID,0,VALID,17.8789,VALID,130,VALID,1.16016,
2008-07-09, 02:45:00,VALID,916.445,VALID,0,VALID,100,VALID,0,VALID,17.8854,VALID,133,VALID,1.08379,
2008-07-09, 02:46:00,VALID,916.431,VALID,0,VALID,100,VALID,0.0339617,VALID,17.8859,VALID,130,VALID,1.04469,
2008-07-09, 02:47:00,VALID,916.442,VALID,0,VALID,100,VALID,0,VALID,17.8822,VALID,129,VALID,1.10499,
2008-07-09, 02:48:00,VALID,916.434,VALID,0,VALID,100,VALID,0,VALID,17.8757,VALID,134,VALID,1.52641,
2008-07-09, 02:49:00,VALID,916.454,VALID,0,VALID,100,VALID,-0.0169808,VALID,17.8984,VALID,136,VALID,1.02168,
2008-07-09, 02:50:00,VALID,916.461,VALID,0,VALID,100,VALID,0.0339617,VALID,17.8824,VALID,126,VALID,1.35423,
2008-07-09, 02:51:00,VALID,916.481,VALID,0,VALID,100,VALID,0,VALID,17.8794,VALID,136,VALID,1.49582,
2008-07-09, 02:52:00,VALID,916.482,VALID,0,VALID,100,VALID,0.0169808,VALID,17.8789,VALID,143,VALID,1.2875,
2008-07-09, 02:53:00,VALID,916.49,VALID,0,VALID,100,VALID,0.0169808,VALID,17.8884,VALID,139,VALID,1.64916,
2008-07-09, 02:54:00,VALID,916.495,VALID,0,VALID,100,VALID,0,VALID,17.9218,VALID,137,VALID,1.46449,
2008-07-09, 02:55:00,VALID,916.491,VALID,0,VALID,100,VALID,0.0169808,VALID,17.9248,VALID,138,VALID,1.45948,
2008-07-09, 02:56:00,VALID,916.494,VALID,0,VALID,100,VALID,-0.135847,VALID,17.9194,VALID,135,VALID,1.37812,
2008-07-09, 02:57:00,VALID,916.478,VALID,0,VALID,100,VALID,-0.101885,VALID,17.9164,VALID,142,VALID,1.72711,
2008-07-09, 02:58:00,VALID,916.467,VALID,0,VALID,100,VALID,-0.152827,VALID,17.9227,VALID,138,VALID,1.17006,
2008-07-09, 02:59:00,VALID,916.438,VALID,0,VALID,100,VALID,-0.101885,VALID,17.9326,VALID,139,VALID,1.27616,
2008-07-09, 03:00:00,VALID,916.412,VALID,0,VALID,100,VALID,-0.152827,VALID,17.9393,VALID,141,VALID,1.43999,
2008-07-09, 03:01:00,VALID,916.388,VALID,0,VALID,100,VALID,-0.101885,VALID,17.9491,VALID,140,VALID,0.965774,
2008-07-09, 03:02:00,VALID,916.37,VALID,0,VALID,100,VALID,-0.118866,VALID,17.9491,VALID,143,VALID,0.833841,
2008-07-09, 03:03:00,VALID,916.363,VALID,0,VALID,100,VALID,-0.118866,VALID,17.9553,VALID,141,VALID,0.914236,
2008-07-09, 03:04:00,VALID,916.362,VALID,0,VALID,100,VALID,-0.101885,VALID,17.9555,VALID,145,VALID,1.12835,
2008-07-09, 03:05:00,VALID,916.352,VALID,0,VALID,100,VALID,-0.101885,VALID,17.9653,VALID,146,VALID,0.867188,
2008-07-09, 03:06:00,VALID,916.373,VALID,0,VALID,100,VALID,-0.0849042,VALID,17.9518,VALID,128,VALID,0.720203,
2008-07-09, 03:07:00,VALID,916.368,VALID,0,VALID,100,VALID,-0.0849042,VALID,17.9456,VALID,124,VALID,0.808594,
2008-07-09, 03:08:00,VALID,916.359,VALID,0,VALID,100,VALID,-0.135847,VALID,17.9555,VALID,141,VALID,0.792969,
2008-07-09, 03:09:00,VALID,916.364,VALID,0,VALID,100,VALID,-0.135847,VALID,17.9655,VALID,144,VALID,0.882102,
2008-07-09, 03:10:00,VALID,916.346,VALID,0,VALID,100,VALID,-0.101885,VALID,17.9676,VALID,147,VALID,0.617733,
2008-07-09, 03:11:00,VALID,916.337,VALID,0,VALID,100,VALID,0.0169808,VALID,17.9702,VALID,144,VALID,0.799023,
2008-07-09, 03:12:00,VALID,916.337,VALID,0,VALID,100,VALID,-0.0339617,VALID,17.9734,VALID,147,VALID,0.821733,
2008-07-09, 03:13:00,VALID,916.328,VALID,0,VALID,100,VALID,-0.0339617,VALID,17.9771,VALID,138,VALID,0.833534,
2008-07-09, 03:14:00,VALID,916.348,VALID,0,VALID,100,VALID,-0.0509425,VALID,17.9674,VALID,133,VALID,0.549414,
2008-07-09, 03:15:00,VALID,916.352,VALID,0,VALID,100,VALID,-0.0509425,VALID,17.9509,VALID,125,VALID,0.547057,
2008-07-09, 03:16:00,VALID,916.36,VALID,0,VALID,100,VALID,0,VALID,17.9572,VALID,111,VALID,0.907986,
2008-07-09, 03:17:00,VALID,916.367,VALID,0,VALID,100,VALID,0,VALID,17.9665,VALID,110,VALID,0.982279,
2008-07-09, 03:18:00,VALID,916.368,VALID,0,VALID,100,VALID,-0.0169808,VALID,18.0026,VALID,110,VALID,1.01719,
2008-07-09, 03:19:00,VALID,916.353,VALID,0,VALID,100,VALID,-0.0169808,VALID,18.0021,VALID,109,VALID,0.920573,
2008-07-09, 03:20:00,VALID,916.338,VALID,0,VALID,100,VALID,0,VALID,18.0121,VALID,111,VALID,0.90191,
2008-07-09, 03:21:00,VALID,916.342,VALID,0,VALID,100,VALID,0,VALID,18.0255,VALID,111,VALID,0.908156,
2008-07-09, 03:22:00,VALID,916.331,VALID,0,VALID,100,VALID,0.0339617,VALID,18.0348,VALID,116,VALID,1.07533,
2008-07-09, 03:23:00,VALID,916.348,VALID,0,VALID,100,VALID,0,VALID,18.0411,VALID,120,VALID,1.08929,
2008-07-09, 03:24:00,VALID,916.362,VALID,0,VALID,100,VALID,0.0169808,VALID,18.0709,VALID,123,VALID,1.14196,
2008-07-09, 03:25:00,VALID,916.37,VALID,0,VALID,100,VALID,-0.0339617,VALID,18.0603,VALID,122,VALID,1.1557,
2008-07-09, 03:26:00,VALID,916.395,VALID,0,VALID,100,VALID,-0.101885,VALID,18.0718,VALID,121,VALID,0.971608,
2008-07-09, 03:27:00,VALID,916.386,VALID,0,VALID,100,VALID,-0.0509425,VALID,18.0614,VALID,124,VALID,1.08916,
2008-07-09, 03:28:00,VALID,916.406,VALID,0,VALID,100,VALID,-0.0849042,VALID,18.0619,VALID,125,VALID,1.02548,
2008-07-09, 03:29:00,VALID,916.412,VALID,0,VALID,100,VALID,-0.101885,VALID,18.0584,VALID,125,VALID,0.972124,
2008-07-09, 03:30:00,VALID,916.416,VALID,0,VALID,100,VALID,-0.101885,VALID,18.0589,VALID,125,VALID,0.959736,
2008-07-09, 03:31:00,VALID,916.411,VALID,0,VALID,100,VALID,-0.118866,VALID,18.0721,VALID,125,VALID,1.01393,
2008-07-09, 03:32:00,VALID,916.428,VALID,0,VALID,100,VALID,-0.101885,VALID,18.0848,VALID,129,VALID,1.04629,
2008-07-09, 03:33:00,VALID,916.433,VALID,0,VALID,100,VALID,-0.118866,VALID,18.0885,VALID,129,VALID,1.07385,
2008-07-09, 03:34:00,VALID,916.44,VALID,0,VALID,100,VALID,-0.101885,VALID,18.0718,VALID,128,VALID,1.09914,
2008-07-09, 03:35:00,VALID,916.441,VALID,0,VALID,100,VALID,-0.101885,VALID,18.0751,VALID,133,VALID,1.11998,
2008-07-09, 03:36:00,VALID,916.437,VALID,0,VALID,100,VALID,-0.101885,VALID,18.0656,VALID,137,VALID,0.973404,
2008-07-09, 03:37:00,VALID,916.435,VALID,0,VALID,100,VALID,-0.118866,VALID,18.0526,VALID,142,VALID,0.88941,
2008-07-09, 03:38:00,VALID,916.445,VALID,0,VALID,100,VALID,-0.101885,VALID,18.0494,VALID,144,VALID,0.690476,
2008-07-09, 03:39:00,VALID,916.449,VALID,0,VALID,100,VALID,-0.101885,VALID,18.0461,VALID,148,VALID,1.21466,
2008-07-09, 03:40:00,VALID,916.437,VALID,0,VALID,100,VALID,-0.135847,VALID,18.0528,VALID,143,VALID,0.817835,
2008-07-09, 03:41:00,VALID,916.443,VALID,0,VALID,100,VALID,-0.0339617,VALID,18.0482,VALID,139,VALID,0.998547,
2008-07-09, 03:42:00,VALID,916.436,VALID,0,VALID,100,VALID,-0.0169808,VALID,18.0283,VALID,146,VALID,1.21577,
2008-07-09, 03:43:00,VALID,916.427,VALID,0,VALID,100,VALID,-0.0169808,VALID,18.0318,VALID,149,VALID,0.883594,
2008-07-09, 03:44:00,VALID,916.423,VALID,0,VALID,100,VALID,-0.0169808,VALID,18.0244,VALID,139,VALID,1.16499,